This is the latest recevied weather packets stored in our database for station/object W0PE-1. If no packets are shown the sender has not sent any weather packets the latest 10 day(s).
| Time | Temp. | Humidity | Pressure | Rain* | Wind** | Luminosity | Snow |
|---|---|---|---|---|---|---|---|
| 1777473915 | 13.33° C | 86% | 1017 hPa | 0 mm | - | - | - |
| 1777473012 | 12.22° C | 87% | 1016.9 hPa | 0 mm | - | - | - |
| 1777472110 | 11.11° C | 86% | 1016.8 hPa | 0 mm | - | - | - |
| 1777471209 | 10.56° C | 86% | 1016.9 hPa | 0 mm | - | - | - |
| 1777470369 | 10° C | 85% | 1017 hPa | 0 mm | - | - | - |
| 1777469408 | 10° C | 85% | 1017.1 hPa | 0 mm | - | - | - |
| 1777468506 | 10° C | 84% | 1017.1 hPa | 0 mm | - | - | - |
| 1777467605 | 10° C | 84% | 1016.9 hPa | 0 mm | - | - | - |
| 1777466704 | 10° C | 84% | 1016.9 hPa | 0 mm | - | - | - |
| 1777465808 | 10.56° C | 84% | 1016.8 hPa | 0 mm | - | - | - |
| 1777464902 | 10.56° C | 83% | 1016.8 hPa | 0 mm | - | - | - |
| 1777464003 | 10.56° C | 82% | 1016.8 hPa | 0 mm | - | - | - |
| 1777463170 | 10.56° C | 82% | 1016.8 hPa | 0 mm | - | - | - |
| 1777462261 | 10.56° C | 82% | 1016.6 hPa | 0 mm | - | - | - |
| 1777461366 | 10.56° C | 81% | 1016.4 hPa | 0 mm | - | - | - |
| 1777460469 | 10.56° C | 81% | 1016.4 hPa | 0 mm | - | - | - |
| 1777459566 | 10.56° C | 81% | 1016.2 hPa | 0 mm | - | - | - |
| 1777458665 | 11.11° C | 81% | 1016.2 hPa | 0 mm | - | - | - |
| 1777457753 | 11.11° C | 81% | 1016.1 hPa | 0 mm | - | - | - |
| 1777456865 | 11.11° C | 80% | 1016.2 hPa | 0 mm | - | - | - |
| 1777455951 | 11.11° C | 80% | 1015.9 hPa | 0 mm | - | - | - |
| 1777455048 | 11.67° C | 80% | 1016 hPa | 0 mm | - | - | - |
| 1777454155 | 11.67° C | 80% | 1016.1 hPa | 0 mm | - | - | - |
| 1777453257 | 11.67° C | 79% | 1016.4 hPa | 0 mm | - | - | - |
| 1777452346 | 11.67° C | 79% | 1016.6 hPa | 0 mm | - | - | - |
* Rain latest hour (hover to see other rain measurements)
** Current wind speed in m/s (hover to see current wind gust speed)